Torna al catalogo

STARLINK-33932

AttivoComunicazioniVLEO
NORAD 63775·PAYLOAD·🇺🇸 United States

Lanciato May 2, 2025 da Cape Canaveral Space Force Station

Loading…

Prossimi Passaggi (prossime 24 ore)

TLE

AggiornatoSource: CelesTrak SupGP

Epoca: Sep 14, 2026, 21:37 UTC

1 63775C 25091A   26257.90118056  .00058174  00000+0  21065-2 0  2574
2 63775  43.0043  63.8127 0001658 272.4190   6.0227 15.27558375    12

Traccia STARLINK-33932 in tempo reale con AllMySat

Download on the App Store